Location: Unspecified
(0.0000°N, 0.0000°E)
Time: 00:04:35
(UTC+00:00)

Transit 4A - All Passes

Search period start: 16 September 2019 00:00
Search period end: 26 September 2019 00:00
Orbit: 865 x 980 km, 66.8° (Epoch: 15 September)

Date Brightness Start Highest point End Pass type
(mag) Time Alt. Az. Time Alt. Az. Time Alt. Az.
16 Sep - 10:55:51 10° SSW 11:02:11 89° WNW 11:08:36 10° NNE daylight
16 Sep - 22:08:47 10° N 22:13:58 33° ENE 22:19:06 10° SE night (unlit)
16 Sep - 23:56:12 10° WNW 00:00:01 18° WSW 00:03:50 10° SSW night (unlit)
17 Sep - 09:22:30 10° SE 09:25:22 13° ESE 09:28:15 10° E daylight
17 Sep - 11:05:20 10° SW 11:11:29 53° WNW 11:17:41 10° N daylight
17 Sep - 22:17:31 10° N 22:23:15 59° ENE 22:28:56 10° SSE night (unlit)
18 Sep - 09:29:48 10° SSE 09:34:41 23° ESE 09:39:37 10° ENE daylight
18 Sep - 11:15:16 10° SW 11:20:47 32° WNW 11:26:21 10° N daylight
18 Sep - 22:26:42 10° NNW 22:32:32 80° WSW 22:38:19 10° SSE night (unlit)
19 Sep - 09:38:09 10° S 09:44:00 39° ESE 09:49:53 10° NE daylight
19 Sep - 11:25:52 10° WSW 11:30:07 19° WNW 11:34:23 10° NNW daylight
19 Sep - 20:53:11 10° NE 20:55:43 13° ENE 20:58:13 10° E night (unlit)
19 Sep - 22:36:16 10° NW 22:41:48 45° WSW 22:47:18 10° S night (unlit)
20 Sep - 09:47:00 10° S 09:53:17 67° ESE 09:59:37 10° NNE daylight
20 Sep - 21:00:30 10° NNE 21:05:02 23° ENE 21:09:31 10° ESE night (unlit)
20 Sep - 22:46:21 10° NW 22:51:05 26° WSW 22:55:47 10° SSW night (unlit)
21 Sep - 09:56:15 10° SSW 10:02:34 74° WNW 10:08:57 10° NNE daylight
21 Sep - 21:08:54 10° N 21:14:20 41° ENE 21:19:43 10° SE night (unlit)
21 Sep - 22:57:21 10° WNW 23:00:23 14° WSW 23:03:25 10° SW night (unlit)
22 Sep - 08:21:55 10° SSE 08:25:46 17° ESE 08:29:37 10° ENE daylight
22 Sep - 10:05:53 10° SW 10:11:52 44° WNW 10:17:54 10° N daylight
22 Sep - 21:17:48 10° NNW 21:23:37 72° ENE 21:29:22 10° SSE night (unlit)
23 Sep - 08:29:45 10° SSE 08:35:04 28° ESE 08:40:27 10° NE daylight
23 Sep - 10:16:01 10° SW 10:21:11 26° WNW 10:26:23 10° NNW daylight
23 Sep - 21:27:08 10° NNW 21:32:53 65° WSW 21:38:37 10° S night (unlit)
24 Sep - 08:38:18 10° S 08:44:23 48° ESE 08:50:29 10° NE daylight
24 Sep - 10:27:01 10° WSW 10:30:31 15° WNW 10:34:01 10° NW daylight
24 Sep - 19:52:37 10° NNE 19:56:05 16° ENE 19:59:32 10° ESE night (unlit)
24 Sep - 21:36:51 10° NW 21:42:09 37° WSW 21:47:26 10° S night (unlit)
25 Sep - 08:47:18 10° SSW 08:53:40 81° ESE 09:00:04 10° NNE daylight
25 Sep - 20:00:28 10° NNE 20:05:24 28° ENE 20:10:17 10° SE visible
25 Sep - 21:47:12 10° WNW 21:51:26 21° WSW 21:55:42 10° SSW night (unlit)
